{"data":{"norad_id":52638,"epoch":"2026-09-20T03:27:11.007360Z","epoch_age_seconds":97223,"freshness":"FRESH","line1":"1 52638U 22052AS  26263.14387740 -.00000517  00000+0 -41773-5 0  9999","line2":"2 52638  53.1604 101.0976 0001412  78.9474 281.1688 15.34380796241362","mean_motion":15.34380796,"eccentricity":0.0001412,"inclination_deg":53.1604,"raan_deg":101.0976,"arg_perigee_deg":78.9474,"mean_anomaly_deg":281.1688,"bstar":-4.1773e-6,"rev_number":24136,"period_min":93.848932660912,"perigee_km":461.79438443602,"apogee_km":463.72625383895,"semimajor_km":6840.8973191375,"source":"CELESTRAK","updated_at":"2026-09-20T09:00:40.097342Z"}}